TimePST,TemperatureF,Dew PointF,Humidity,Sea Level PressureIn,VisibilityMPH,Wind Direction,Wind SpeedMPH,Gust SpeedMPH,PrecipitationIn,Events,Conditions,WindDirDegrees,DateUTC
12:52 AM,43.0,12.9,30,29.99,-9999.0,NNE,3.5,-,N/A,,Unknown,20,2013-11-08 08:52:00
1:52 AM,41.0,14.0,33,29.99,-9999.0,East,3.5,-,N/A,,Unknown,80,2013-11-08 09:52:00
2:52 AM,44.1,12.9,28,29.99,-9999.0,Calm,Calm,-,N/A,,Unknown,0,2013-11-08 10:52:00
3:52 AM,43.0,15.1,32,30.00,-9999.0,NE,4.6,-,N/A,,Unknown,50,2013-11-08 11:52:00
4:52 AM,44.1,14.0,30,30.00,-9999.0,NE,4.6,-,N/A,,Unknown,50,2013-11-08 12:52:00
5:52 AM,41.0,16.0,36,30.01,-9999.0,NE,4.6,-,N/A,,Unknown,50,2013-11-08 13:52:00
6:52 AM,42.1,17.1,37,30.03,-9999.0,NE,5.8,-,N/A,,Unknown,50,2013-11-08 14:52:00
7:52 AM,55.9,18.0,23,30.02,-9999.0,Calm,Calm,-,N/A,,Unknown,0,2013-11-08 15:52:00
8:52 AM,66.9,18.0,15,30.00,-9999.0,Calm,Calm,-,N/A,,Unknown,0,2013-11-08 16:52:00
9:52 AM,72.0,10.9,10,29.99,-9999.0,Calm,Calm,-,N/A,,Unknown,0,2013-11-08 17:52:00
10:52 AM,75.0,12.0,9,29.97,-9999.0,SW,8.1,-,N/A,,Unknown,220,2013-11-08 18:52:00
11:52 AM,77.0,12.0,8,29.94,-9999.0,SW,12.7,-,N/A,,Unknown,220,2013-11-08 19:52:00
12:52 PM,77.0,12.9,9,29.91,-9999.0,SW,15.0,23.0,N/A,,Unknown,220,2013-11-08 20:52:00
1:52 PM,77.0,12.9,9,29.91,-9999.0,SW,15.0,-,N/A,,Unknown,220,2013-11-08 21:52:00
2:52 PM,75.9,12.9,9,29.90,-9999.0,West,5.8,-,N/A,,Unknown,260,2013-11-08 22:52:00
3:52 PM,72.0,21.9,15,29.90,-9999.0,SW,12.7,-,N/A,,Unknown,220,2013-11-08 23:52:00
4:52 PM,64.9,28.0,25,29.92,-9999.0,SW,4.6,-,N/A,,Unknown,220,2013-11-09 00:52:00
5:52 PM,55.9,26.1,32,29.95,-9999.0,NNE,3.5,-,N/A,,Unknown,30,2013-11-09 01:52:00
6:52 PM,50.0,25.0,38,29.98,-9999.0,NE,6.9,-,N/A,,Unknown,50,2013-11-09 02:52:00
7:52 PM,48.0,24.1,39,29.97,-9999.0,NE,5.8,-,N/A,,Unknown,50,2013-11-09 03:52:00
8:52 PM,44.1,24.1,45,29.98,-9999.0,NE,5.8,-,N/A,,Unknown,50,2013-11-09 04:52:00
9:52 PM,43.0,24.1,47,29.98,-9999.0,NE,6.9,-,N/A,,Unknown,50,2013-11-09 05:52:00
10:52 PM,41.0,23.0,49,29.98,-9999.0,NE,5.8,-,N/A,,Unknown,40,2013-11-09 06:52:00
11:52 PM,39.0,21.9,50,29.97,-9999.0,NNE,5.8,-,N/A,,Unknown,30,2013-11-09 07:52:00